Location: Antioch
(38.0049°N, 121.8058°W)
Time: 03:32:05
(UTC+00:00)

Cosmos 1354 Rocket - Pass Details

Date: 11 February 2026
Orbit: 760 x 779 km, 74.0° (Epoch: 7 March)

Event Time Altitude Azimuth Distance (km) Brightness Sun altitude
Rises 14:11:13 0° 210° (SSW) 3,204 7.0 -10.5°
Reaches altitude 10° 14:13:38 10° 215° (SW) 2,284 6.2 -10.0°
Maximum altitude 14:18:41 52° 292° (WNW) 948 4.1 -9.0°
Drops below altitude 10° 14:23:46 10° 8° (N) 2,306 6.5 -8.1°
Sets 14:26:14 0° 14° (NNE) 3,239 7.3 -7.6°
